ORBVIEW 2 (SEASTAR)

Last updated on Sat Aug 15 2026 00:02:08 GMT+0000 (Coordinated Universal Time)

1 24883U 97037A 26226.42734955 .00000066 00000+0 39240-4 0 9991 2 24883 98.8749 35.0802 0001603 345.1122 15.0015 14.35578610531100
UTC large
Height (km)
Speed (km/s)
/
Latitude / Longitude
Inclination (degrees)
Orbital Period (minutes)
Azimuth
Elevation
Range (km)
Doppler Factor

Next 0 passes for location: London (51.5072 / 0.1276)

No passes found over London.
ORBVIEW 2 (SEASTAR)